Voltar ao catálogo

DELTA 1 DEB

AtivoLEO
NORAD 10707·DEBRIS·🇺🇸 United States

Lançado Jul 29, 1976 de Vandenberg Space Force Base

Loading…

Próximas Passagens (próximas 24 horas)

TLE

AtualizadoSource: Space-Track

Época: Sep 14, 2026, 11:42 UTC

1 10707U 76077AC  26257.48771948  .00000176  00000-0  24574-2 0  9990
2 10707 102.1949 261.1533 0262187 149.9422   4.1250 11.98526122163055

Acompanhe DELTA 1 DEB em tempo real com AllMySat

Download on the App Store